YO8KGT-13 Weather Reports


time (UTC)temp
C
wind
direction
speed
KPH
gust
KPH
rain 1hr
cm
rain 24hr
cm
rain mn
cm
humidity
%
barometer
mb
20260504222427 12 22 0.0 0.0 0.00 0.00 0.00 57 945.0
20260504221936 12 22 0.0 1.6 0.00 0.00 0.00 57 945.0
20260504220921 12 22 0.0 1.6 0.00 0.00 0.00 55 946.0
20260504220423 12 22 0.0 0.0 0.00 0.00 0.00 54 945.0
20260504215943 12 22 0.0 0.0 0.00 0.00 0.00 54 945.0
20260504215423 12 22 0.0 0.0 0.00 0.00 0.00 54 945.0
20260504214923 12 22 0.0 0.0 0.00 0.00 0.00 54 945.0
20260504214423 12 22 0.0 0.0 0.00 0.00 0.00 53 945.0
20260504213924 13 22 0.0 0.0 0.00 0.00 0.00 53 945.0
20260504213431 13 22 0.0 0.0 0.00 0.00 0.00 52 945.0
20260504212925 13 22 0.0 0.0 0.00 0.00 0.00 52 946.0
20260504211922 13 22 0.0 0.0 0.00 0.00 0.00 51 946.0
20260504210922 13 22 0.0 0.0 0.00 0.00 0.00 50 946.0
20260504205422 14 22 0.0 0.0 0.00 0.00 0.00 49 945.0
20260504204923 14 22 0.0 0.0 0.00 0.00 0.00 48 945.0
20260504203923 14 22 0.0 0.0 0.00 0.00 0.00 47 945.0
20260504203421 15 22 0.0 0.0 0.00 0.00 0.00 47 946.0
20260504202930 15 22 0.0 0.0 0.00 0.00 0.00 47 946.0
20260504202424 15 22 0.0 0.0 0.00 0.00 0.00 46 945.0
20260504201424 15 0 0.0 0.0 0.00 0.00 0.00 45 945.0
20260504200937 15 22 0.0 0.0 0.00 0.00 0.00 45 945.0
20260504195924 16 22 0.0 3.2 0.00 0.00 0.00 45 945.0
20260504195425 16 22 0.0 3.2 0.00 0.00 0.00 44 945.0
20260504194423 16 22 3.2 3.2 0.00 0.00 0.00 44 945.0
20260504193923 16 22 0.0 3.2 0.00 0.00 0.00 44 945.0
20260504193424 16 22 0.0 3.2 0.00 0.00 0.00 44 945.0
20260504192922 16 22 0.0 3.2 0.00 0.00 0.00 43 945.0
20260504191425 16 0 0.0 0.0 0.00 0.00 0.00 42 945.0
20260504190443 17 22 0.0 0.0 0.00 0.00 0.00 41 945.0
20260504185925 17 22 0.0 0.0 0.00 0.00 0.00 40 945.0
20260504185424 17 22 0.0 0.0 0.00 0.00 0.00 39 945.0
20260504184922 17 22 0.0 0.0 0.00 0.00 0.00 39 945.0
20260504183924 18 22 0.0 0.0 0.00 0.00 0.00 38 945.0
20260504182921 18 22 0.0 0.0 0.00 0.00 0.00 38 945.0
20260504182422 18 22 0.0 0.0 0.00 0.00 0.00 38 945.0
20260504181931 18 22 0.0 0.0 0.00 0.00 0.00 37 945.0
20260504181424 18 22 0.0 0.0 0.00 0.00 0.00 37 945.0
20260504180927 18 22 0.0 0.0 0.00 0.00 0.00 36 945.0
20260504180442 19 22 0.0 0.0 0.00 0.00 0.00 36 945.0
20260504175422 19 22 0.0 0.0 0.00 0.00 0.00 35 945.0
20260504174922 20 22 0.0 0.0 0.00 0.00 0.00 35 945.0
20260504174422 20 22 0.0 0.0 0.00 0.00 0.00 34 944.0
20260504173426 20 22 0.0 0.0 0.00 0.00 0.00 34 944.0
20260504172923 20 22 0.0 0.0 0.00 0.00 0.00 34 944.0
20260504172423 21 22 0.0 0.0 0.00 0.00 0.00 33 944.0
20260504171941 21 22 0.0 0.0 0.00 0.00 0.00 33 944.0
20260504171439 21 22 0.0 0.0 0.00 0.00 0.00 33 944.0
20260504170927 21 22 0.0 3.2 0.00 0.00 0.00 33 944.0
20260504150941 25 0 4.8 6.4 0.00 0.00 0.00 28 945.0
20260504150423 25 22 6.4 9.7 0.00 0.00 0.00 28 945.0
20260504140922 26 45 6.4 6.4 0.00 0.00 0.00 27 945.0
20260504140421 26 45 0.0 6.4 0.00 0.00 0.00 26 945.0
20260504130423 27 0 0.0 4.8 0.00 0.00 0.00 27 945.0
20260504110421 27 22 6.4 16.1 0.00 0.00 0.00 27 946.0
20260504100422 26 45 9.7 16.1 0.00 0.00 0.00 29 947.0
20260504080923 22 22 6.4 14.5 0.00 0.00 0.00 37 947.0
20260504080421 22 45 8.0 19.3 0.00 0.00 0.00 37 948.0
20260504050420 14 338 0.0 3.2 0.00 0.00 0.00 56 948.0
20260504045426 14 0 0.0 1.6 0.00 0.00 0.00 56 948.0
20260504042920 13 225 1.6 3.2 0.00 0.00 0.00 59 948.0
20260504042421 12 225 0.0 3.2 0.00 0.00 0.00 60 948.0
20260504041927 12 225 0.0 3.2 0.00 0.00 0.00 60 948.0
20260504041428 12 225 3.2 3.2 0.00 0.00 0.00 61 948.0
20260504040421 11 225 0.0 0.0 0.00 0.00 0.00 62 948.0
20260504035925 11 225 0.0 0.0 0.00 0.00 0.00 63 948.0
20260504034920 11 225 0.0 0.0 0.00 0.00 0.00 64 948.0
20260504033921 10 225 0.0 0.0 0.00 0.00 0.00 64 948.0
20260504033420 10 225 0.0 0.0 0.00 0.00 0.00 64 948.0
20260504032924 10 225 0.0 0.0 0.00 0.00 0.00 64 948.0
20260504032420 10 225 0.0 0.0 0.00 0.00 0.00 65 948.0
20260504031922 10 225 0.0 0.0 0.00 0.00 0.00 65 947.0
20260504031422 10 225 0.0 0.0 0.00 0.00 0.00 65 948.0
20260504030934 10 225 0.0 3.2 0.00 0.00 0.00 65 947.0
20260504025924 10 225 0.0 3.2 0.00 0.00 0.00 65 947.0
20260504025420 9 225 0.0 3.2 0.00 0.00 0.00 66 947.0
20260504024921 9 225 0.0 3.2 0.00 0.00 0.00 67 947.0
20260504024426 9 225 0.0 0.0 0.00 0.00 0.00 67 948.0
20260504023926 8 225 0.0 0.0 0.00 0.00 0.00 67 947.0
20260504023421 8 225 0.0 0.0 0.00 0.00 0.00 67 947.0
20260504022921 8 225 0.0 0.0 0.00 0.00 0.00 67 947.0
20260504022430 8 225 0.0 0.0 0.00 0.00 0.00 67 947.0
20260504021922 8 225 0.0 0.0 0.00 0.00 0.00 67 947.0
20260504020926 8 225 0.0 0.0 0.00 0.00 0.00 68 947.0
20260504020438 8 225 0.0 0.0 0.00 0.00 0.00 68 947.0
20260504015923 8 225 0.0 0.0 0.00 0.00 0.00 69 947.0
20260504015421 8 225 0.0 0.0 0.00 0.00 0.00 69 947.0
20260504014920 7 225 0.0 0.0 0.00 0.00 0.00 69 947.0
20260504013925 7 225 0.0 0.0 0.00 0.00 0.00 68 947.0
20260504013421 7 225 0.0 0.0 0.00 0.00 0.00 68 947.0
20260504012921 7 225 0.0 0.0 0.00 0.00 0.00 68 947.0
20260504012420 7 225 0.0 0.0 0.00 0.00 0.00 68 947.0
20260504011936 7 225 0.0 0.0 0.00 0.00 0.00 69 947.0
20260504011421 7 225 0.0 0.0 0.00 0.00 0.00 68 947.0
20260504005420 8 225 0.0 0.0 0.00 0.00 0.00 68 947.0
20260504002921 7 225 0.0 0.0 0.00 0.00 0.00 68 947.0
20260504002420 7 225 0.0 0.0 0.00 0.00 0.00 68 947.0
20260504001438 7 225 0.0 0.0 0.00 0.00 0.00 68 947.0
20260504000923 7 225 0.0 0.0 0.00 0.00 0.00 67 947.0
20260504000420 7 225 0.0 0.0 0.00 0.00 0.00 67 947.0
20260503234926 7 225 0.0 0.0 0.00 0.00 0.00 66 947.0
20260503234420 7 225 0.0 0.0 0.00 0.00 0.00 66 947.0
20260503232421 8 225 0.0 0.0 0.00 0.00 0.00 65 947.0
20260503231920 8 225 0.0 0.0 0.00 0.00 0.00 65 948.0
20260503231423 8 225 0.0 0.0 0.00 0.00 0.00 65 947.0
20260503230921 8 225 0.0 0.0 0.00 0.00 0.00 65 947.0
20260503225922 8 225 0.0 0.0 0.00 0.00 0.00 64 948.0
20260503224435 8 225 0.0 0.0 0.00 0.00 0.00 63 948.0
20260503223924 8 225 0.0 0.0 0.00 0.00 0.00 63 948.0